Regional Weather Roundup
Issued by NWS

Home | Current Version | Previous Version | Graphics & Text | Print | Product List | Glossary Off
Versions: 1 2 3 4 5 6 7 8 9 10 11 12 13 14 15 16 17 18 19 20 21 22 23 24 25 26 27 28 29 30 31 32 33 34 35 36 37 38 39 40 41 42 43 44 45 46 47 48 49 50

817
ASUS43 KDTX 091601
RWRMI
MICHIGAN HOURLY REGIONAL WEATHER ROUNDUP
NATIONAL WEATHER SERVICE DETROIT/PONTIAC MI
1100 AM EST FRI DEC 09 2016

NOTE: "FAIR" INDICATES FEW OR NO CLOUDS BELOW 12,000 FEET WITH NO
SIGNIFICANT WEATHER AND/OR OBSTRUCTION TO VISIBILITY.

MIZ047>049-052>055-059>063-066>070-074>076-081>083-091700-
SOUTHEAST LOWER MICHIGAN

CITY           SKY/WX    TMP DP  RH WIND       PRES   REMARKS
ADRIAN         CLOUDY    27  23  85 NW9       30.42R WCI  18
ALMA           SUNNY     30  18  62 NW13      30.38R WCI  20
ANN ARBOR      CLOUDY    29  20  69 W14       30.38R WCI  18
BAD AXE        CLOUDY    27  16  61 NW13      30.34R WCI  17
CARO           FLURRIES  27  23  85 W8        30.35S WCI  18
DETROIT CITY   PTSUNNY   30  18  60 NW13G22   30.38R WCI  20
DETROIT        PTSUNNY   31  22  69 W9G20     30.39R WCI  23
FLINT          MOSUNNY   30  18  60 NW16G24   30.37R WCI  19
GROSSE ILE     CLOUDY    30  24  79 W7        30.38S WCI  23
HILLSDALE      LGT SNOW  25  21  86 W7        30.39R VSB 1   WCI  17
HOWELL         PTSUNNY   30  18  60 NW12G17   30.37S WCI  20

CITY           SKY/WX    TMP DP  RH WIND       PRES   REMARKS
JACKSON        LGT SNOW  27  22  81 W6        30.39S WCI  20
LAMBERTVILLE   CLOUDY    30  24  79 W8        30.42S WCI  22
LANSING        PTSUNNY   29  17  61 NW12      30.40R WCI  19
LAPEER         NOT AVBL
MASON          CLOUDY    27  21  77 W10       30.39S WCI  18
MONROE         CLOUDY    29  25  87 W12G20    30.40S WCI  19
PONTIAC        MOSUNNY   29  18  63 NW13      30.34S WCI  19
PORT HOPE        N/A     28  17  63 NW15      30.32R WCI  16
PORT HURON     PTSUNNY   28  21  74 W9        30.35S WCI  20
TRI CITIES     CLOUDY    28  21  75 NW13      30.37R WCI  17
MIDLAND        CLOUDY    29  19  67 W7        30.36S WCI  22
TROY           MOSUNNY   31  17  57 W8G16     30.38S WCI  23
SAGINAW HB     CLOUDY    30  21  69 W12       30.36R WCI  21
$$
MIZ043>046-050>051-056>058-064>065-071>073-077>080-091700-
SOUTHWEST LOWER MICHIGAN

CITY           SKY/WX    TMP DP  RH WIND       PRES   REMARKS
BATTLE CREEK   LGT SNOW  27  24  89 NW9       30.41S FOG     WCI  18
BENTON HARBOR  LGT SNOW  29  20  69 W15       30.47R WCI  18
BIG RAPIDS     SUNNY     26  16  64 W14G20    30.36R WCI  15
COLDWATER      CLOUDY    27  24  90 W9        30.42R WCI  17
FREMONT        LGT SNOW  25  20  81 NW8       30.41R WCI  16
HOLLAND        LGT SNOW  28  19  69 NW15      30.43R WCI  16
GRAND RAPIDS   FLURRIES  27  16  63 NW9       30.41R WCI  18
IONIA          CLOUDY    27  17  65 NW9       30.39R WCI  18
KALAMAZOO      LGT SNOW  28  22  78 W7        30.42R WCI  21
LUDINGTON      CLOUDY    26  16  65 NW10      30.40S WCI  17
MARSHALL       LGT SNOW  27  25  91 W7        30.40S WCI  19
MOUNT PLEASANT PTSUNNY   29  19  65 W13G20    30.36R WCI  19
MUSKEGON       FLURRIES  29  19  66 NW15      30.43R WCI  18
SOUTH HAVEN    LGT SNOW  29  19  66 NW9G17    30.45R WCI  21
$$
MIZ016>042-091700-
NORTHERN LOWER MICHIGAN

CITY           SKY/WX    TMP DP  RH WIND       PRES   REMARKS
ALPENA         CLOUDY    25  17  72 NW7       30.33R WCI  17
BEAVER ISLAND  CLOUDY    26  19  74 NW10      30.34R WCI  16
BELLAIRE       LGT SNOW  25  23  91 CALM      30.35R VSB 3/4
CADILLAC       FLURRIES  25  19  77 W9        30.31R WCI  16
CHARLEVOIX     CLOUDY    28  16  60 NW12G24   30.36R WCI  18
FRANKFORT      FLURRIES  27  23  86 W7G18     30.37R WCI  19
GAYLORD        LGT SNOW  22  14  71 VRB3      30.29R
GRAYLING       LGT SNOW  24  20  85 CALM      30.31S
HARBOR SPRINGS LGT SNOW  24  19  82 N3        30.33R
HOUGHTON LAKE  LGT SNOW  24  19  81 CALM      30.32R
MANISTEE       LGT SNOW  26  22  84 W18       30.38S FOG     WCI  13
OSCODA         MOSUNNY   28  14  56 MISG      30.33R
PELLSTON       LGT SNOW  24  16  71 NW9       30.34R WCI  14
ROGERS CITY    FLURRIES  25  16  68 N8        30.34R WCI  16
TRAVERSE CITY  SNOW      27  23  85 NW6       30.35R VSB 1/2 WCI  20
$$
MIZ007>008-015-091700-
EASTERN UPPER MICHIGAN

CITY           SKY/WX    TMP DP  RH WIND       PRES   REMARKS
KINROSS        LGT SNOW  18  13  80 NE5       30.34R WCI  11
MACKINAC ISLAN CLOUDY    22  15  72 N5        30.33R WCI  16
NEWBERRY       LGT SNOW  21  19  90 W5        30.33R WCI  15
S. S. MARIE    CLOUDY    20   8  60 N8        30.33R WCI  10
MUNISING         N/A     26  17  68 N13       30.36R WCI  15
$$
MIZ004>006-011>014-085-091700-
CENTRAL UPPER MICHIGAN

CITY           SKY/WX    TMP DP  RH WIND       PRES   REMARKS
MANISTIQUE     MOSUNNY   22  20  93 NW6       30.35R WCI  15
ESCANABA       PTSUNNY   23  14  68 NW9       30.39R WCI  13
MENOMINEE      MOSUNNY   22  11  62 NW12      30.43R WCI  10
SAWYER-GWINN   SUNNY     19  14  79 NW9       30.34R WCI   9
$$
MIZ001>003-009>011-084-091700-
WESTERN UPPER MICHIGAN

CITY           SKY/WX    TMP DP  RH WIND       PRES   REMARKS
IRON MOUNTAIN  MOSUNNY   19   9  65 NW12      30.38R WCI   7
HOUGHTON       FLURRIES  19  11  70 NW15      30.38R WCI   5
COPPER HARBOR    N/A     23  15  71 NE12      30.39R WCI  12
IRONWOOD       LGT SNOW  16  10  77 W14       30.44R WCI   2
$$

ABBREVIATIONS USED IN REMARKS
   TC - TEMPERATURE IN CELSIUS
  WCI - WIND CHILL INDEX
   HX - HEAT INDEX
  VSB - VISIBILITY





USA.gov is the U.S. government's official web portal to all federal, state and local government web resources and services.